sat.trackr.live / text

‹ back to catalog

STARLINK-32697

NORAD 62436 · 2024-251E

PAYLOAD ACTIVE UNKNOWN

§ Identity

Operator
Country
US
Launch date
2024-12-29
Launch site
AFWTR
Launch vehicle
Mass (kg)
RCS (m²)

Purposes: comms

External: N2YO · Heavens-Above · Gunter

§ Orbital elements

Epoch: 2026-09-21T21:30:21.658464Z

Period
93.85 min
Inclination
53.1588°
Eccentricity
0.0001045
Mean motion
15.34390256 rev/d
Perigee alt
462.0 km
Apogee alt
463.4 km
Semi-major
6,840.9 km
B*
3.2199e-4
RAAN
142.8743°
Arg perigee
96.2061°
Mean anomaly
263.9061°
Rev number
9,800

§ Raw data

STARLINK-326971 62436U 24251E   26264.89608401  .00010515  00000+0  32199-3 0  99992 62436  53.1588 142.8743 0001045  96.2061 263.9061 15.34390256 98008

JSON: /api/v1/satellites/62436 · /tle

For live sub-satellite position, see the globe view (requires WebGL).

§ Visibility from observer

Set your observer location to see the next 7 days of passes ≥ 10°. The values pass through the URL so the page stays shareable.

No JS? Fill the form by hand. The geolocation button needs JavaScript.